Regional Weather Roundup
Issued by NWS

Home | Current Version | Previous Version | Graphics & Text | Print | Product List | Glossary On
Versions: 1 2 3 4 5 6 7 8 9 10 11 12 13 14 15 16 17 18 19 20 21 22 23 24 25 26 27 28 29 30 31 32 33 34 35 36 37 38 39 40 41 42 43 44 45 46 47 48 49 50
000
ASUS43 KMKX 311221
RWRWI

WISCONSIN REGIONAL WEATHER ROUNDUP
NATIONAL WEATHER SERVICE MILWAUKEE/SULLIVAN WI
700 AM CDT WED AUG 31 2016

NOTE: "FAIR" INDICATES FEW OR NO CLOUDS BELOW 12,000 FEET WITH NO
SIGNIFICANT WEATHER AND/OR OBSTRUCTIONS TO VISIBILITY.

WIZ001-002-006>008-014>016-023>028-311300-
NORTHWEST WISCONSIN

CITY           SKY/WX    TMP DP  RH WIND       PRES   REMARKS
SUPERIOR ARPT  CLEAR     46  46 100 CALM      30.21R
6HR MIN TEMP:  44; 6HR MAX TEMP:  49;

ASHLAND        CLEAR     48  48 100 W3        30.20R
6HR MIN TEMP:  46; 6HR MAX TEMP:  58;

HAYWARD        FOG       46  45  96 CALM      30.21R VSB 1/4
6HR MIN TEMP:  45; 6HR MAX TEMP:  51;

SIREN          CLEAR     48  47  96 CALM      30.21S
6HR MIN TEMP:  46; 6HR MAX TEMP:  53;

CUMBERLAND     CLEAR     52  50  93 CALM      30.20S
RICE LAKE      PTCLDY    50  49  97 CALM      30.21S FOG
6HR MIN TEMP:  48; 6HR MAX TEMP:  54;

CHETEK         NOT AVBL
LADYSMITH      CLEAR     53  51  94 NW5       30.20R
6HR MIN TEMP:  51; 6HR MAX TEMP:  57;

EAU CLAIRE     CLEAR     50  50 100 CALM      30.18R
6HR MIN TEMP:  49; 6HR MAX TEMP:  57;

MENOMONIE      CLEAR     54  53  99 CALM      30.20R
6HR MIN TEMP:  53; 6HR MAX TEMP:  60;

NEW RICHMOND   FOG       51  51 100 CALM      30.21R VSB 1/4
6HR MIN TEMP:  49; 6HR MAX TEMP:  57;

OSCEOLA        FOG       51  51 100 CALM      30.24R VSB 1/4
6HR MIN TEMP:  51; 6HR MAX TEMP:  56;

$$

WIZ003>005-009-010-017-018-311300-
NORTH CENTRAL WISCONSIN

CITY           SKY/WX    TMP DP  RH WIND       PRES   REMARKS
MANITOWISH WTR NOT AVBL
ARBOR VITAE    FOG       49  48  96 CALM      30.18R VSB 1/4
6HR MIN TEMP:  47; 6HR MAX TEMP:  52;

WOODRUFF       FOG       49  48  96 CALM      30.18R VSB 1/4
6HR MIN TEMP:  47; 6HR MAX TEMP:  52;

RHINELANDER    CLEAR     54  54 100 CALM      30.17S
6HR MIN TEMP:  45; 6HR MAX TEMP:  54;

EAGLE RIVER    CLEAR     44  44 100 CALM      30.17S
6HR MIN TEMP:  43; 6HR MAX TEMP:  48;

LAND O LAKES   CLEAR     43  43 100 CALM      30.19R
6HR MIN TEMP:  42; 6HR MAX TEMP:  46;

PHILLIPS       CLEAR     47  47 100 CALM      30.18S
6HR MIN TEMP:  46; 6HR MAX TEMP:  51;

TOMAHAWK       CLEAR     41  40  97 CALM      30.18R
6HR MIN TEMP:  40; 6HR MAX TEMP:  47;

MEDFORD        CLEAR     47  47 100 CALM      30.17S FOG
6HR MIN TEMP:  43; 6HR MAX TEMP:  50;

MERRILL        CLEAR     44  44 100 CALM      30.18R
6HR MIN TEMP:  44; 6HR MAX TEMP:  50;

$$

WIZ029-030-035-036-043>047-311300-
CENTRAL WISCONSIN

CITY           SKY/WX    TMP DP  RH WIND       PRES   REMARKS
WAUSAU         PTCLDY    53  51  93 NW5       30.15R
6HR MIN TEMP:  52; 6HR MAX TEMP:  57;

MOSINEE        CLEAR     52  52 100 NW5       30.17R
MARSHFIELD     CLEAR     53  49  86 NW5       30.16R
6HR MIN TEMP:  51; 6HR MAX TEMP:  60;

STEVENS POINT  CLEAR     49  48  97 CALM      30.16S
6HR MIN TEMP:  48; 6HR MAX TEMP:  57;

WAUPACA        PTCLDY    55  55  97 N3        30.15R
6HR MIN TEMP:  54; 6HR MAX TEMP:  65;

WAUTOMA        CLEAR     52  51  97 CALM      30.15R
6HR MIN TEMP:  51; 6HR MAX TEMP:  65;

WISC RAPIDS    CLEAR     54  52  93 N5        30.17R
6HR MIN TEMP:  52; 6HR MAX TEMP:  61;

CAMP DOUGLAS   PTCLDY    48  48 100 W5        30.16R
$$

WIZ011>013-019>022-031-037>040-048>050-311300-
NORTHEAST WISCONSIN

CITY           SKY/WX    TMP DP  RH WIND       PRES   REMARKS
ANTIGO         CLEAR     47  47 100 CALM      30.17R
6HR MIN TEMP:  46; 6HR MAX TEMP:  52;

SHAWANO        CLEAR     55  53  92 CALM      30.14S
6HR MIN TEMP:  54; 6HR MAX TEMP:  64;

OCONTO         NOT AVBL
STURGEON BAY   CLEAR     61  57  87 NW6       30.12R
6HR MIN TEMP:  57; 6HR MAX TEMP:  64;

GREEN BAY      CLEAR     55  55 100 NW3       30.12R
6HR MIN TEMP:  54; 6HR MAX TEMP:  65;

MANITOWOC      CLEAR     59  55  87 NW5       30.12R
6HR MIN TEMP:  58; 6HR MAX TEMP:  68;

APPLETON       MOCLDY    57  55  94 NW7       30.12R
CLINTONVILLE   CLEAR     55  50  82 CALM      30.14S
OSHKOSH        PTCLDY    60  57  89 N6        30.12R
6HR MIN TEMP:  59; 6HR MAX TEMP:  70;

$$

WIZ032>034-041-042-053>061-311300-
SOUTHWEST WISCONSIN

CITY           SKY/WX    TMP DP  RH WIND       PRES   REMARKS
LA CROSSE      CLEAR     58  57  97 N6        30.16R
6HR MIN TEMP:  58; 6HR MAX TEMP:  64;

SPARTA         FOG       48  48 100 CALM      30.18R VSB 1/4
6HR MIN TEMP:  47; 6HR MAX TEMP:  56;

VIROQUA        CLEAR     55  54  94 CALM      30.17S
6HR MIN TEMP:  55; 6HR MAX TEMP:  63;

BOSCOBEL       CLOUDY    57  56  96 CALM      30.15R FOG
6HR MIN TEMP:  55; 6HR MAX TEMP:  64;

PRAIRIE DU CHI PTCLDY    59  56  91 CALM      30.14R
6HR MIN TEMP:  58; 6HR MAX TEMP:  65;

PLATTEVILLE    PTCLDY    60  60  99 N7        30.13S
6HR MIN TEMP:  60; 6HR MAX TEMP:  67;

$$

WIZ056-057-062-063-064-067-068-311300-
SOUTH CENTRAL WISCONSIN

CITY           SKY/WX    TMP DP  RH WIND       PRES   REMARKS
REEDSBURG      NOT AVBL
BARABOO/DELLS  CLOUDY    56  54  91 CALM      30.14R
6HR MIN TEMP:  56; 6HR MAX TEMP:  66;

LONE ROCK      MOCLDY    58  56  93 W3        30.15R
6HR MIN TEMP:  58; 6HR MAX TEMP:  68;

MINERAL POINT  PTCLDY    61  59  94 N5        30.14R
MADISON        MOCLDY    63  61  93 N7        30.12R
6HR MIN TEMP:  62; 6HR MAX TEMP:  68;

MIDDLETON      CLOUDY    64  63  96 N5        30.13R
6HR MIN TEMP:  62; 6HR MAX TEMP:  68;

WATERTOWN      CLOUDY    62  58  88 N6        30.11R
6HR MIN TEMP:  61; 6HR MAX TEMP:  69;

MONROE         CLOUDY    63  61  94 N8        30.12R
JANESVILLE     PTCLDY    66  64  94 CALM      30.10R
$$

WIZ051-052-058>065-066-070>072-311300-
SOUTHEAST WISCONSIN

CITY           SKY/WX    TMP DP  RH WIND       PRES   REMARKS
MILWAUKEE      MOCLDY    66  57  72 N8        30.09R
6HR MIN TEMP:  65; 6HR MAX TEMP:  73;

WAUKESHA       CLEAR     61  55  82 N6        30.12R
MILWAUKEE/TIMM CLOUDY    61  54  77 N8        30.09S
RACINE         PTCLDY    64  57  78 N15       30.09R
6HR MIN TEMP:  64; 6HR MAX TEMP:  71;

BURLINGTON     CLOUDY    60  57  89 N3        30.09R
6HR MIN TEMP:  60; 6HR MAX TEMP:  67;

KENOSHA        PTCLDY    63  58  83 N8        30.08R
6HR MIN TEMP:  63; 6HR MAX TEMP:  71;

FOND DU LAC    CLEAR     60  57  89 N6        30.12R
6HR MIN TEMP:  59; 6HR MAX TEMP:  71;

SHEBOYGAN      CLEAR     59  53  80 NW7       30.11R
6HR MIN TEMP:  58; 6HR MAX TEMP:  68;

WEST BEND      CLEAR     59  54  82 N5        30.11R
JUNEAU         CLOUDY    60  55  83 N5        30.12S
6HR MIN TEMP:  59; 6HR MAX TEMP:  67;

$$

LSZ147-162-311300-
LAKE SUPERIOR

STATION/POSITION TIME  TEMP    WIND        PRES    WAVE
                       AIR SEA DIR/SP/G            HT/PER
                 (UTC) (F)     (DEG/KT/KT) (MB)    (FT/S)
W MID LAKE BUOY  1150   65 67  320/  6/  8 1020.9R   1
DEVILS ISLAND    1200   63     330/ 10/ 11 1022.2R
PORT WING        1100   53     150/  3/  5 1022.4R
SAXON HARBOR     1100   54     190/  5/  7 1021.3
$$

LMZ867-665-643>646-311300-
LAKE MICHIGAN

STATION/POSITION TIME  TEMP    WIND        PRES    WAVE
                       AIR SEA DIR/SP/G            HT/PER
                 (UTC) (F)     (DEG/KT/KT) (MB)    (FT/S)
CHAMBERS ISLAND  1100   62     310/  5/  8 1019.3S
N MID LAKE BUOY  1150   66 71  340/ 12/ 16 1018.3R   2/ 4
NORTHPORT PIER   1100   66     340/  9/ 11 1019.0S
SISTER BAY       1052   64      20/  6/  C1F1C2F2C3F3C4F4C5F5C6F6C7F7C8M1C9M2Ca!


USA.gov is the U.S. government's official web portal to all federal, state and local government web resources and services.